DM5RC Weather Reports


Display with metric or nautical units.
time (UTC)temp
F
wind
direction
speed
MPH
gust
MPH
rain 1hr
in
rain 24hr
in
rain mn
in
humidity
%
barometer
mb
20260509220835 48 122 0.0 1.0 0.00 0.00 0.00 88 1018.3
20260509220358 47 122 0.0 1.0 0.00 0.00 0.00 88 1018.2
20260509215813 48 122 0.0 0.0 0.00 0.00 0.00 87 1018.2
20260509215318 48 122 0.0 0.0 0.00 0.00 0.00 87 1018.1
20260509214822 48 122 0.0 0.0 0.00 0.00 0.00 87 1018.1
20260509214325 48 122 0.0 0.0 0.00 0.00 0.00 86 1018.1
20260509213826 49 122 0.0 0.0 0.00 0.00 0.00 86 1018.2
20260509213346 49 122 0.0 1.0 0.00 0.00 0.00 85 1018.3
20260509212826 49 122 0.0 1.0 0.00 0.00 0.00 85 1018.3
20260509212326 50 122 0.0 1.0 0.00 0.00 0.00 85 1018.3
20260509211829 50 122 0.0 1.0 0.00 0.00 0.00 85 1018.3
20260509211314 50 122 0.0 1.0 0.00 0.00 0.00 84 1018.3
20260509210323 50 122 0.0 1.0 0.00 0.00 0.00 84 1018.3
20260509205826 50 122 0.0 1.0 0.00 0.00 0.00 83 1018.3
20260509205348 51 122 0.0 2.0 0.00 0.00 0.00 83 1018.4
20260509204828 50 126 1.0 2.0 0.00 0.00 0.00 84 1018.4
20260509204331 50 142 0.0 0.0 0.00 0.00 0.00 84 1018.5
20260509203831 50 142 0.0 0.0 0.00 0.00 0.00 84 1018.5
20260509203314 50 142 0.0 0.0 0.00 0.00 0.00 83 1018.5
20260509202816 51 142 0.0 0.0 0.00 0.00 0.00 83 1018.5
20260509202318 51 142 0.0 0.0 0.00 0.00 0.00 82 1018.5
20260509201821 51 142 0.0 0.0 0.00 0.00 0.00 80 1018.5
20260509201323 52 142 0.0 0.0 0.00 0.00 0.00 79 1018.4
20260509200825 52 142 0.0 0.0 0.00 0.00 0.00 79 1018.4
20260509200329 52 142 0.0 0.0 0.00 0.00 0.00 78 1018.4
20260509195853 53 142 0.0 0.0 0.00 0.00 0.00 77 1018.4
20260509195313 53 142 0.0 0.0 0.00 0.00 0.00 77 1018.4
20260509194816 54 142 0.0 0.0 0.00 0.00 0.00 76 1018.4
20260509194320 54 142 0.0 0.0 0.00 0.00 0.00 76 1018.4
20260509193822 54 142 0.0 0.0 0.00 0.00 0.00 76 1018.4
20260509193331 54 142 0.0 1.0 0.00 0.00 0.00 75 1018.4
20260509192832 55 142 0.0 1.0 0.00 0.00 0.00 75 1018.4
20260509192313 55 135 0.0 1.0 0.00 0.00 0.00 75 1018.3
20260509191815 55 134 0.0 1.0 0.00 0.00 0.00 74 1018.3
20260509191318 55 136 0.0 1.0 0.00 0.00 0.00 73 1018.2
20260509190819 56 136 0.0 1.0 0.00 0.00 0.00 72 1018.2
20260509190320 56 136 0.0 1.0 0.00 0.00 0.00 71 1018.2
20260509185842 56 136 0.0 1.0 0.00 0.00 0.00 71 1018.1
20260509185322 57 136 0.0 2.0 0.00 0.00 0.00 70 1018.1
20260509184827 57 136 0.0 2.0 0.00 0.00 0.00 69 1018.0
20260509184350 57 136 0.0 3.0 0.00 0.00 0.00 68 1018.0
20260509183814 58 139 1.0 3.0 0.00 0.00 0.00 68 1018.0
20260509183346 58 124 0.0 2.0 0.00 0.00 0.00 67 1018.0
20260509182830 58 133 1.0 4.0 0.00 0.00 0.00 67 1018.0
20260509182332 59 149 1.0 4.0 0.00 0.00 0.00 66 1018.0
20260509181815 59 141 2.0 3.0 0.00 0.00 0.00 66 1018.1
20260509181338 59 129 2.0 3.0 0.00 0.00 0.00 66 1018.0
20260509180818 59 122 1.0 4.0 0.00 0.00 0.00 66 1018.1
20260509180318 59 122 2.0 5.0 0.00 0.00 0.00 65 1018.1
20260509175817 59 144 3.0 5.0 0.00 0.00 0.00 65 1018.1
20260509175321 60 139 2.0 4.0 0.00 0.00 0.00 66 1018.2
20260509174825 60 127 2.0 3.0 0.00 0.00 0.00 65 1018.2
20260509174325 60 137 1.0 3.0 0.00 0.00 0.00 65 1018.2
20260509173849 60 137 1.0 5.0 0.00 0.00 0.00 64 1018.2
20260509173350 60 129 1.0 5.0 0.00 0.00 0.00 63 1018.2
20260509172829 60 134 2.0 6.0 0.00 0.00 0.00 63 1018.2
20260509172349 61 122 2.0 6.0 0.00 0.00 0.00 63 1018.2
20260509171829 61 72 1.0 4.0 0.00 0.00 0.00 62 1018.3
20260509171329 61 86 2.0 5.0 0.00 0.00 0.00 61 1018.2
20260509170828 61 116 3.0 5.0 0.00 0.00 0.00 61 1018.3
20260509170351 61 124 1.0 4.0 0.00 0.00 0.00 62 1018.3
20260509165814 61 121 2.0 5.0 0.00 0.00 0.00 62 1018.4
20260509165318 61 146 1.0 3.0 0.00 0.00 0.00 61 1018.4
20260509164840 62 121 0.0 2.0 0.00 0.00 0.00 60 1018.4
20260509164339 62 121 0.0 2.0 0.00 0.00 0.00 59 1018.4
20260509163839 62 58 0.0 1.0 0.00 0.00 0.00 59 1018.4
20260509163317 62 58 0.0 1.0 0.00 0.00 0.00 58 1018.5
20260509162817 62 56 0.0 1.0 0.00 0.00 0.00 58 1018.5
20260509162317 62 56 0.0 1.0 0.00 0.00 0.00 58 1018.6
20260509161817 62 56 0.0 2.0 0.00 0.00 0.00 58 1018.6
20260509161317 62 56 1.0 2.0 0.00 0.00 0.00 58 1018.6
20260509160819 62 56 0.0 3.0 0.00 0.00 0.00 58 1018.7
20260509160321 62 55 1.0 3.0 0.00 0.00 0.00 58 1018.7
20260509155823 63 60 2.0 3.0 0.00 0.00 0.00 57 1018.7
20260509155326 63 128 1.0 2.0 0.00 0.00 0.00 56 1018.8
20260509154829 63 133 1.0 3.0 0.00 0.00 0.00 55 1018.8
20260509154352 63 202 1.0 5.0 0.00 0.00 0.00 55 1018.8
20260509153832 63 52 3.0 5.0 0.00 0.00 0.00 55 1018.8
20260509153315 63 149 0.0 1.0 0.00 0.00 0.00 55 1018.8
20260509152838 63 142 0.0 2.0 0.00 0.00 0.00 56 1018.9
20260509152318 62 68 0.0 1.0 0.00 0.00 0.00 56 1018.9
20260509151821 62 68 0.0 1.0 0.00 0.00 0.00 57 1018.9
20260509151324 62 68 0.0 2.0 0.00 0.00 0.00 57 1018.9
20260509150825 62 68 1.0 2.0 0.00 0.00 0.00 57 1018.9
20260509150328 62 67 1.0 3.0 0.00 0.00 0.00 57 1018.9
20260509145830 62 68 2.0 3.0 0.00 0.00 0.00 56 1019.0
20260509145333 63 73 0.0 2.0 0.00 0.00 0.00 58 1019.0
20260509144819 62 1 0.0 4.0 0.00 0.00 0.00 58 1019.0
20260509144320 62 1 0.0 4.0 0.00 0.00 0.00 58 1019.0
20260509143824 63 53 1.0 3.0 0.00 0.00 0.00 57 1019.1
20260509143329 63 53 0.0 2.0 0.00 0.00 0.00 56 1019.1
20260509142814 62 53 0.0 3.0 0.00 0.00 0.00 57 1019.1
20260509142316 62 53 1.0 4.0 0.00 0.00 0.00 57 1019.1
20260509141320 62 45 2.0 4.0 0.00 0.00 0.00 56 1019.2
20260509140820 62 37 2.0 4.0 0.00 0.00 0.00 57 1019.2
20260509140321 62 37 2.0 5.0 0.00 0.00 0.00 57 1019.3
20260509135822 63 22 1.0 5.0 0.00 0.00 0.00 56 1019.3
20260509135322 62 68 1.0 5.0 0.00 0.00 0.00 56 1019.3
20260509134825 63 54 3.0 5.0 0.00 0.00 0.00 56 1019.4
20260509134328 63 61 1.0 3.0 0.00 0.00 0.00 56 1019.4
20260509133851 63 37 1.0 5.0 0.00 0.00 0.00 54 1019.5
20260509133331 63 46 2.0 5.0 0.00 0.00 0.00 55 1019.5
20260509132812 63 62 2.0 4.0 0.00 0.00 0.00 56 1019.5
20260509132333 63 37 1.0 3.0 0.00 0.00 0.00 55 1019.6
20260509131849 62 14 2.0 3.0 0.00 0.00 0.00 56 1019.5
20260509131348 63 17 2.0 3.0 0.00 0.00 0.00 56 1019.6
20260509130828 62 272 1.0 5.0 0.00 0.00 0.00 56 1019.6
20260509130330 62 201 2.0 5.0 0.00 0.00 0.00 56 1019.7
20260509125813 63 357 0.0 3.0 0.00 0.00 0.00 57 1019.7
20260509125316 62 245 0.0 6.0 0.00 0.00 0.00 59 1019.7
20260509124840 62 253 4.0 6.0 0.00 0.00 0.00 57 1019.8
20260509124322 62 205 2.0 5.0 0.00 0.00 0.00 58 1019.8
20260509123824 62 122 4.0 5.0 0.00 0.00 0.00 56 1019.9
20260509123327 63 123 1.0 2.0 0.00 0.00 0.00 56 1019.9
20260509122830 62 132 1.0 3.0 0.00 0.00 0.00 58 1020.0
20260509122352 62 230 1.0 3.0 0.00 0.00 0.00 58 1020.0
20260509121831 61 254 1.0 3.0 0.00 0.00 0.00 59 1020.0
20260509121331 61 218 0.0 2.0 0.00 0.00 0.00 59 1019.9
20260509120832 61 219 0.0 4.0 0.00 0.00 0.00 60 1020.0
20260509120353 61 229 3.0 4.0 0.00 0.00 0.00 58 1020.0
20260509115828 62 193 1.0 5.0 0.00 0.00 0.00 58 1019.9
20260509115331 62 123 1.0 5.0 0.00 0.00 0.00 57 1019.9
20260509114814 62 50 1.0 6.0 0.00 0.00 0.00 57 1020.0
20260509114317 62 48 3.0 6.0 0.00 0.00 0.00 58 1020.1
20260509113819 62 127 2.0 4.0 0.00 0.00 0.00 56 1020.2
20260509113322 62 133 1.0 4.0 0.00 0.00 0.00 58 1020.2
20260509112825 61 68 0.0 5.0 0.00 0.00 0.00 60 1020.2
20260509112327 61 151 2.0 6.0 0.00 0.00 0.00 59 1020.2
20260509111850 61 121 3.0 6.0 0.00 0.00 0.00 58 1020.2
20260509111313 61 57 2.0 4.0 0.00 0.00 0.00 57 1020.2
20260509110816 62 50 2.0 4.0 0.00 0.00 0.00 58 1020.3
20260509110319 61 62 0.0 3.0 0.00 0.00 0.00 59 1020.3
20260509105822 61 129 1.0 3.0 0.00 0.00 0.00 58 1020.3
20260509105327 62 135 1.0 3.0 0.00 0.00 0.00 58 1020.3
20260509104832 61 71 2.0 3.0 0.00 0.00 0.00 58 1020.4
20260509104314 61 148 1.0 4.0 0.00 0.00 0.00 59 1020.3
20260509103816 61 106 2.0 4.0 0.00 0.00 0.00 57 1020.4
20260509103339 62 45 0.0 3.0 0.00 0.00 0.00 57 1020.4
20260509102821 62 143 0.0 4.0 0.00 0.00 0.00 58 1020.4
20260509102344 62 59 2.0 4.0 0.00 0.00 0.00 58 1020.3
20260509101824 61 129 0.0 7.0 0.00 0.00 0.00 58 1020.4
20260509101347 61 65 4.0 7.0 0.00 0.00 0.00 57 1020.4
20260509100848 61 47 3.0 5.0 0.00 0.00 0.00 57 1020.4
20260509100328 60 116 1.0 3.0 0.00 0.00 0.00 58 1020.5
20260509095827 61 229 1.0 2.0 0.00 0.00 0.00 57 1020.5
20260509095329 61 121 0.0 3.0 0.00 0.00 0.00 60 1020.5
20260509094830 60 122 1.0 3.0 0.00 0.00 0.00 60 1020.5
20260509094313 60 51 2.0 3.0 0.00 0.00 0.00 59 1020.6
20260509093814 61 136 0.0 1.0 0.00 0.00 0.00 61 1020.6
20260509093317 61 137 0.0 3.0 0.00 0.00 0.00 62 1020.6
20260509092819 60 129 1.0 4.0 0.00 0.00 0.00 61 1020.5
20260509092324 60 49 2.0 4.0 0.00 0.00 0.00 62 1020.5
20260509091823 60 89 1.0 4.0 0.00 0.00 0.00 62 1020.5
20260509091323 60 49 0.0 4.0 0.00 0.00 0.00 64 1020.5
20260509090824 60 23 2.0 4.0 0.00 0.00 0.00 63 1020.5
20260509090325 60 43 0.0 3.0 0.00 0.00 0.00 67 1020.5
20260509085825 58 49 0.0 4.0 0.00 0.00 0.00 69 1020.5
20260509085325 58 50 2.0 4.0 0.00 0.00 0.00 68 1020.5
20260509084826 58 41 1.0 4.0 0.00 0.00 0.00 68 1020.6
20260509084327 58 11 2.0 3.0 0.00 0.00 0.00 68 1020.6
20260509083314 57 21 0.0 4.0 0.00 0.00 0.00 71 1020.5
20260509082814 57 22 2.0 4.0 0.00 0.00 0.00 72 1020.5
20260509082314 57 44 1.0 5.0 0.00 0.00 0.00 71 1020.5
20260509081816 57 32 3.0 5.0 0.00 0.00 0.00 70 1020.5
20260509081315 57 19 1.0 6.0 0.00 0.00 0.00 70 1020.5
20260509080815 57 43 3.0 6.0 0.00 0.00 0.00 67 1020.5
20260509080316 57 10 1.0 4.0 0.00 0.00 0.00 66 1020.5
20260509075816 57 14 2.0 5.0 0.00 0.00 0.00 72 1020.5
20260509075319 56 2 4.0 5.0 0.00 0.00 0.00 72 1020.5
20260509074820 56 37 2.0 6.0 0.00 0.00 0.00 73 1020.5
20260509074323 57 71 2.0 6.0 0.00 0.00 0.00 77 1020.5
20260509073823 56 56 2.0 7.0 0.00 0.00 0.00 79 1020.5
20260509073346 56 54 3.0 5.0 0.00 0.00 0.00 78 1020.5
20260509072828 56 57 2.0 5.0 0.00 0.00 0.00 77 1020.6
20260509072330 56 61 2.0 5.0 0.00 0.00 0.00 79 1020.6
20260509071812 56 40 3.0 5.0 0.00 0.00 0.00 77 1020.5
20260509071314 55 93 2.0 7.0 0.00 0.00 0.00 81 1020.5
20260509070817 55 54 4.0 7.0 0.00 0.00 0.00 79 1020.5
20260509070319 56 54 3.0 6.0 0.00 0.00 0.00 80 1020.5
20260509065821 55 79 2.0 6.0 0.00 0.00 0.00 84 1020.5
20260509065324 54 50 4.0 6.0 0.00 0.00 0.00 83 1020.5
20260509064846 55 53 3.0 6.0 0.00 0.00 0.00 83 1020.5
20260509064327 55 56 3.0 5.0 0.00 0.00 0.00 82 1020.4
20260509063827 55 53 1.0 4.0 0.00 0.00 0.00 82 1020.4
20260509063329 54 231 0.0 2.0 0.00 0.00 0.00 82 1020.4
20260509062828 54 208 0.0 3.0 0.00 0.00 0.00 85 1020.3
20260509062331 54 261 0.0 2.0 0.00 0.00 0.00 87 1020.3
20260509061849 53 346 1.0 2.0 0.00 0.00 0.00 89 1020.3
20260509061330 52 262 0.0 3.0 0.00 0.00 0.00 91 1020.3
20260509060852 51 262 1.0 3.0 0.00 0.00 0.00 91 1020.3
20260509060314 51 270 1.0 2.0 0.00 0.00 0.00 92 1020.4
20260509055817 50 68 0.0 1.0 0.00 0.00 0.00 93 1020.4
20260509055317 50 68 0.0 1.0 0.00 0.00 0.00 93 1020.4
20260509054819 50 68 0.0 1.0 0.00 0.00 0.00 93 1020.4
20260509054318 49 68 0.0 2.0 0.00 0.00 0.00 93 1020.4
20260509053818 49 68 0.0 2.0 0.00 0.00 0.00 93 1020.4
20260509053318 49 68 0.0 0.0 0.00 0.00 0.00 93 1020.4
20260509052819 49 68 0.0 0.0 0.00 0.00 0.00 93 1020.3
20260509052320 49 68 0.0 0.0 0.00 0.00 0.00 94 1020.3
20260509051823 49 68 0.0 0.0 0.00 0.00 0.00 94 1020.3
20260509051327 49 68 0.0 0.0 0.00 0.00 0.00 94 1020.2
20260509050829 49 68 0.0 0.0 0.00 0.00 0.00 94 1020.2
20260509050329 49 68 0.0 0.0 0.00 0.00 0.00 94 1020.2
20260509045822 49 68 0.0 0.0 0.00 0.00 0.00 94 1020.2
20260509045323 49 68 0.0 0.0 0.00 0.00 0.00 94 1020.2
20260509044823 49 68 0.0 0.0 0.00 0.00 0.00 94 1020.1
20260509044326 49 68 0.0 0.0 0.00 0.00 0.00 94 1020.1
20260509043848 48 68 0.0 1.0 0.00 0.00 0.00 94 1020.1
20260509043330 48 68 0.0 1.0 0.00 0.00 0.00 94 1020.0
20260509042813 48 68 0.0 1.0 0.00 0.00 0.00 94 1020.0
20260509042316 48 68 0.0 0.0 0.00 0.00 0.00 94 1019.9
20260509041820 48 68 0.0 0.0 0.00 0.00 0.00 94 1020.0
20260509041342 48 68 0.0 0.0 0.00 0.00 0.00 94 1020.0
20260509040844 48 68 0.0 0.0 0.00 0.00 0.00 94 1020.0
20260509040325 48 68 0.0 0.0 0.00 0.00 0.00 94 1019.9
20260509035827 48 68 0.0 0.0 0.00 0.00 0.00 94 1020.0
20260509035329 48 68 0.0 0.0 0.00 0.00 0.00 94 1019.9
20260509034831 48 68 0.0 0.0 0.00 0.00 0.00 94 1019.9
20260509034314 48 68 0.0 0.0 0.00 0.00 0.00 94 1019.9
20260509033817 48 68 0.0 0.0 0.00 0.00 0.00 94 1019.9
20260509033319 48 68 0.0 0.0 0.00 0.00 0.00 94 1020.0
20260509032820 48 68 0.0 0.0 0.00 0.00 0.00 94 1020.0
20260509032343 48 68 0.0 0.0 0.00 0.00 0.00 93 1020.0
20260509031823 48 68 0.0 0.0 0.00 0.00 0.00 94 1020.0
20260509031346 48 68 0.0 0.0 0.00 0.00 0.00 93 1020.0
20260509030848 48 68 0.0 0.0 0.00 0.00 0.00 93 1020.1
20260509030312 47 68 0.0 0.0 0.00 0.00 0.00 93 1020.0
20260509025813 48 68 0.0 1.0 0.00 0.00 0.00 93 1020.0
20260509025315 48 68 0.0 1.0 0.00 0.00 0.00 93 1020.1
20260509024816 48 68 0.0 0.0 0.00 0.00 0.00 93 1020.1
20260509024318 48 68 0.0 0.0 0.00 0.00 0.00 93 1020.2
20260509023839 48 68 0.0 0.0 0.00 0.00 0.00 92 1020.2
20260509023319 48 68 0.0 0.0 0.00 0.00 0.00 92 1020.1
20260509022819 48 68 0.0 0.0 0.00 0.00 0.00 92 1020.1
20260509022340 48 68 0.0 1.0 0.00 0.00 0.00 92 1020.1
20260509021819 48 68 0.0 1.0 0.00 0.00 0.00 91 1020.1
20260509021336 49 68 0.0 1.0 0.00 0.00 0.00 91 1020.1
20260509020836 49 68 0.0 1.0 0.00 0.00 0.00 92 1020.1
20260509020319 49 68 0.0 0.0 0.00 0.00 0.00 92 1020.1
20260509015822 49 68 0.0 2.0 0.00 0.00 0.00 92 1020.1
20260509015343 49 68 1.0 2.0 0.00 0.00 0.00 92 1020.1
20260509014825 48 79 0.0 0.0 0.00 0.00 0.00 91 1020.0
20260509014324 48 78 0.0 0.0 0.00 0.00 0.00 92 1020.0
20260509013843 48 79 0.0 0.0 0.00 0.00 0.00 91 1019.9
20260509013322 49 79 0.0 0.0 0.00 0.00 0.00 91 1020.0
20260509012823 49 79 0.0 0.0 0.00 0.00 0.00 91 1020.0
20260509012325 49 79 0.0 0.0 0.00 0.00 0.00 91 1020.0
20260509011824 49 79 0.0 0.0 0.00 0.00 0.00 90 1020.0
20260509011345 49 78 0.0 1.0 0.00 0.00 0.00 89 1019.9
20260509010825 49 78 0.0 1.0 0.00 0.00 0.00 89 1019.9
20260509010328 50 78 0.0 2.0 0.00 0.00 0.00 89 1019.9
20260509005830 50 78 1.0 2.0 0.00 0.00 0.00 89 1019.9
20260509005329 50 79 1.0 2.0 0.00 0.00 0.00 89 1019.9
20260509004831 50 79 0.0 2.0 0.00 0.00 0.00 88 1019.9
20260509004332 50 79 0.0 2.0 0.00 0.00 0.00 88 1019.9
20260509003832 50 78 0.0 3.0 0.00 0.00 0.00 88 1019.9
20260509003313 50 78 1.0 3.0 0.00 0.00 0.00 88 1019.9
20260509002814 50 53 1.0 3.0 0.00 0.00 0.00 88 1019.9
20260509002314 50 36 1.0 6.0 0.00 0.00 0.00 89 1019.9
20260509001815 50 60 3.0 6.0 0.00 0.00 0.00 90 1019.8
20260509001315 50 56 1.0 2.0 0.00 0.00 0.00 90 1019.9
20260509000818 51 23 0.0 2.0 0.00 0.00 0.00 91 1019.9
20260509000320 51 23 1.0 2.0 0.00 0.00 0.00 90 1019.9
20260508235842 51 15 1.0 2.0 0.00 0.04 0.00 90 1019.9
20260508235323 51 15 1.0 2.0 0.00 0.04 0.00 90 1019.9
20260508234844 51 15 0.0 1.0 0.00 0.04 0.00 90 1019.9
20260508234320 51 15 0.0 2.0 0.00 0.04 0.00 90 1019.9
20260508233821 51 15 1.0 2.0 0.00 0.04 0.00 90 1019.9
20260508233321 51 14 1.0 2.0 0.00 0.04 0.00 90 1019.9
20260508232822 51 3 1.0 3.0 0.00 0.04 0.00 90 1019.9
20260508232322 51 8 1.0 2.0 0.00 0.04 0.00 90 1020.0
20260508231822 51 22 0.0 1.0 0.00 0.04 0.00 89 1020.1
20260508231323 51 22 0.0 0.0 0.00 0.04 0.00 89 1020.1
20260508230844 51 22 0.0 0.0 0.00 0.04 0.00 89 1020.1
20260508230325 51 22 0.0 0.0 0.00 0.04 0.00 88 1020.1
20260508225845 51 22 0.0 0.0 0.00 0.08 0.00 88 1020.1
20260508225327 51 22 0.0 2.0 0.00 0.08 0.00 88 1020.1
20260508224830 51 26 0.0 1.0 0.00 0.08 0.00 88 1020.1
20260508224313 51 26 0.0 0.0 0.00 0.08 0.00 88 1020.1
20260508223815 51 26 0.0 0.0 0.00 0.08 0.00 87 1020.1
20260508223317 51 26 0.0 0.0 0.00 0.08 0.00 87 1020.2
20260508222821 51 26 0.0 1.0 0.00 0.08 0.00 87 1020.2
20260508222324 51 26 0.0 1.0 0.00 0.08 0.00 86 1020.2
20260508221826 52 26 1.0 1.0 0.00 0.08 0.00 86 1020.2
20260508221327 52 26 0.0 0.0 0.00 0.08 0.00 85 1020.1